Weather History for Birmingham, United Kingdom

Change the Weather History Date:

Thursday, November 22, 2012

  Actual Average Record
Temperature  
Mean Temperature 47 °F -  
Max Temperature 53 °F 46 °F 57 °F (2014)
Min Temperature 41 °F 35 °F 28 °F (1997)
Degree Days  
Heating Degree Days 18    
Moisture  
Dew Point 46 °F    
Average Humidity 88    
Maximum Humidity 100    
Minimum Humidity 77    
Precipitation  
Precipitation 0.00 in 0.08 in - ()
Sea Level Pressure  
Sea Level Pressure 29.68 in    
Wind  
Wind Speed 11 mph ()    
Max Wind Speed 24 mph    
Max Gust Speed 46 mph    
Visibility 5.8 miles    
Events Rain    
Averages and records for this station are not official NWS values.
T = Trace of Precipitation, MM = Missing Value Source: Averaged Metar Reports

Daily Weather History Graph

Daily Weather History Graph

Search for Another Location

Airport:

Trip Planner

Search our weather history database for the weather conditions in past years. The results will help you decide how hot, cold, wet, or windy it might be!

Date:

Astronomy

Nov. 22, 2012 Rise Set
Actual Time 7:41 AM GMT 4:04 PM GMT
Civil Twilight 7:02 AM GMT 4:43 PM GMT
Nautical Twilight 6:19 AM GMT 5:26 PM GMT
Astronomical Twilight 5:39 AM GMT 6:06 PM GMT
Moon 1:20 PM GMT (11/22) 1:04 AM GMT (11/22)
Length of Visible Light 9h 41m
Length of Day
8h 23m
Waxing Gibbous, 69% of the Moon is Illuminated
Nov 22
Waxing Gibbous
Nov 28
Full
Dec 6
Last Quarter
Dec 13
New
Dec 20
First Quarter

Hourly Weather History & Observations

Time (GMT) Temp. Windchill Dew Point Humidity Pressure Visibility Wind Dir Wind Speed Gust Speed Precip Events Conditions
12:20 AM 41.0 °F 36.4 °F 39.2 °F 93% 29.86 in 6.2 mi South 6.9 mph - N/A   Partly Cloudy
12:50 AM 42.8 °F 38.6 °F 41.0 °F 93% 29.86 in 6.2 mi SE 6.9 mph - N/A   Scattered Clouds
1:20 AM 42.8 °F 38.6 °F 42.8 °F 100% 29.86 in 6.2 mi SSE 6.9 mph - N/A   Mostly Cloudy
1:50 AM 44.6 °F 40.2 °F 42.8 °F 93% 29.86 in 6.2 mi South 8.1 mph - N/A   Mostly Cloudy
2:20 AM 42.8 °F 37.0 °F 42.8 °F 100% 29.86 in 6.2 mi South 10.4 mph - N/A   Partly Cloudy
2:50 AM 46.4 °F 41.9 °F 44.6 °F 93% 29.83 in 6.2 mi South 9.2 mph - N/A   Scattered Clouds
3:20 AM 46.4 °F 41.5 °F 44.6 °F 93% 29.83 in 6.2 mi South 10.4 mph - N/A   Scattered Clouds
3:50 AM 48.2 °F - 46.4 °F 93% 29.83 in 2.5 mi South 9.2 mph - N/A   Drizzle
4:20 AM 48.2 °F - 46.4 °F 93% 29.80 in 5.0 mi South 9.2 mph - N/A   Light Drizzle
4:50 AM 48.2 °F - 48.2 °F 100% 29.80 in 6.2 mi South 9.2 mph - N/A   Mostly Cloudy
5:20 AM 48.2 °F - 46.4 °F 93% 29.80 in 6.2 mi South 8.1 mph - N/A Rain Light Rain
5:50 AM 50.0 °F - 48.2 °F 94% 29.77 in 6.2 mi South 10.4 mph - N/A   Scattered Clouds
6:20 AM 50.0 °F - 48.2 °F 94% 29.80 in 6.2 mi South 11.5 mph - N/A   Mostly Cloudy
6:50 AM 50.0 °F - 48.2 °F 94% 29.77 in 6.2 mi South 12.7 mph - N/A   Mostly Cloudy
7:20 AM 50.0 °F - 46.4 °F 87% 29.77 in 6.2 mi South 11.5 mph - N/A   Scattered Clouds
7:50 AM 50.0 °F - 46.4 °F 87% 29.77 in 6.2 mi South 12.7 mph - N/A   Partly Cloudy
8:20 AM 50.0 °F - 46.4 °F 87% 29.77 in 6.2 mi South 11.5 mph - N/A   Mostly Cloudy
8:50 AM 51.8 °F - 48.2 °F 88% 29.74 in 6.2 mi South 13.8 mph 26.5 mph N/A   Scattered Clouds
9:20 AM 51.8 °F - 48.2 °F 88% 29.74 in 6.2 mi South 16.1 mph - N/A   Scattered Clouds
9:50 AM 53.6 °F - 48.2 °F 82% 29.74 in 6.2 mi South 16.1 mph - N/A   Mostly Cloudy
10:20 AM 53.6 °F - 48.2 °F 82% 29.71 in 6.2 mi South 16.1 mph 27.6 mph N/A   Scattered Clouds
10:50 AM 53.6 °F - 48.2 °F 82% 29.71 in 6.2 mi South 16.1 mph - N/A   Scattered Clouds
11:20 AM 53.6 °F - 48.2 °F 82% 29.68 in 6.2 mi South 20.7 mph 34.5 mph N/A Rain Light Rain Showers
11:50 AM 53.6 °F - 48.2 °F 82% 29.65 in 6.2 mi South 18.4 mph 31.1 mph N/A   Scattered Clouds
12:20 PM 53.6 °F - 48.2 °F 82% 29.65 in 6.2 mi South 19.6 mph 36.8 mph N/A   Mostly Cloudy
12:50 PM 53.6 °F - 48.2 °F 82% 29.62 in 6.2 mi South 19.6 mph 34.5 mph N/A Rain Light Rain Showers
1:50 PM 53.6 °F - 46.4 °F 77% 29.59 in 5.0 mi South 23.0 mph 42.6 mph N/A   Scattered Clouds
2:20 PM 53.6 °F - 46.4 °F 77% 29.59 in 6.2 mi South 24.2 mph 46.0 mph N/A   Scattered Clouds
2:50 PM 53.6 °F - 46.4 °F 77% 29.56 in 6.2 mi South 21.9 mph 40.3 mph N/A   Scattered Clouds
3:20 PM 53.6 °F - 46.4 °F 77% 29.56 in 6.2 mi South 24.2 mph 43.7 mph N/A Rain Light Rain
3:50 PM 51.8 °F - 46.4 °F 82% 29.53 in 6.2 mi South 20.7 mph 32.2 mph N/A Rain Light Rain
4:20 PM 53.6 °F - 46.4 °F 77% 29.53 in 6.2 mi South 21.9 mph 35.7 mph N/A   Mostly Cloudy
4:50 PM 53.6 °F - 46.4 °F 77% 29.50 in 5.0 mi South 24.2 mph 41.4 mph N/A Rain Light Rain
5:20 PM 53.6 °F - 46.4 °F 77% 29.50 in 6.2 mi South 23.0 mph 41.4 mph N/A Rain Light Rain
5:50 PM 53.6 °F - 46.4 °F 77% 29.50 in 6.2 mi South 19.6 mph 35.7 mph N/A Rain Light Rain
6:20 PM 48.2 °F - 46.4 °F 93% 29.53 in 4.3 mi SW 13.8 mph - N/A Rain Light Rain
6:50 PM 48.2 °F - 46.4 °F 93% 29.53 in 3.7 mi SW 10.4 mph - N/A Rain Light Rain
7:20 PM 48.2 °F - 46.4 °F 93% 29.53 in 3.7 mi SW 10.4 mph - N/A Rain Light Rain
7:50 PM 48.2 °F - 46.4 °F 93% 29.56 in 4.3 mi SSW 11.5 mph - N/A Rain Light Rain
8:20 PM 46.4 °F 41.9 °F 44.6 °F 93% 29.56 in 6.2 mi West 9.2 mph - N/A Rain Light Rain
8:50 PM 44.6 °F 40.2 °F 44.6 °F 100% 29.59 in 6.2 mi WSW 8.1 mph - N/A Rain Light Rain
9:20 PM 44.6 °F 40.7 °F 42.8 °F 93% 29.59 in 6.2 mi SW 6.9 mph - N/A Rain Light Rain
9:50 PM 44.6 °F 40.2 °F 42.8 °F 93% 29.59 in 6.2 mi SW 8.1 mph - N/A Rain Rain
10:20 PM 44.6 °F 40.7 °F 42.8 °F 93% 29.59 in 6.2 mi SW 6.9 mph - N/A Rain Light Rain
10:50 PM 44.6 °F 39.7 °F 42.8 °F 93% 29.59 in 6.2 mi South 9.2 mph - N/A   Scattered Clouds
11:20 PM 44.6 °F 39.7 °F 42.8 °F 93% 29.59 in - SSW 9.2 mph - N/A   Clear
11:50 PM 44.6 °F 39.7 °F 42.8 °F 93% 29.62 in - SSW 9.2 mph - N/A   Clear